Cairo, IL

7:28 AM CST on December 08, 2019 (GMT -0600)
Cairo Regional

Weather History for KCIR - October, 2019

Change the Weather History Date:

Thursday, October 31, 2019

  Actual Average Record
Temperature  
Mean Temperature 36 °F -  
Max Temperature 41 °F 67 °F 84 °F (1950)
Min Temperature 28 °F 49 °F 28 °F (2017)
Degree Days  
Heating Degree Days 30    
Moisture  
Dew Point 32 °F    
Average Humidity 85    
Maximum Humidity 99    
Minimum Humidity 62    
Precipitation  
Precipitation 0.46 in - - ()
Sea Level Pressure  
Sea Level Pressure 30.13 in    
Wind  
Wind Speed 10 mph ()    
Max Wind Speed 24 mph    
Max Gust Speed 31 mph    
Visibility 9.0 miles    
Events Rain    
Averages and records for this station are not official NWS values.
T = Trace of Precipitation, MM = Missing Value Source: Averaged Metar Reports

Daily Weather History Graph

Daily Weather History Graph

Search for Another Location

Airport or City:

Astronomy

Oct. 31, 2019 Rise Set
Actual Time 7:19 AM CDT 6:00 PM CDT
Civil Twilight 6:52 AM CDT 6:27 PM CDT
Nautical Twilight 6:22 AM CDT 6:58 PM CDT
Astronomical Twilight 5:52 AM CDT 7:28 PM CDT
Moon 11:04 AM CDT (10/31) 9:01 PM CDT (10/31)
Length of Visible Light 11h 34m
Length of Day
10h 40m
Waxing Crescent, 16% of the Moon is Illuminated
Oct 31
Waxing Crescent
Nov 4
First Quarter
Nov 12
Full
Nov 19
Last Quarter
Nov 26
New

Hourly Weather History & Observations

Time (CDT) Temp. Windchill Dew Point Humidity Pressure Visibility Wind Dir Wind Speed Gust Speed Precip Events Conditions
12:15 AM 43.0 °F 37.2 °F 42.8 °F 99% 29.91 in 3.0 mi WNW 10.4 mph 18.4 mph 0.01 in Rain Light Rain
12:35 AM 42.1 °F 34.5 °F 41.9 °F 99% 29.94 in 4.0 mi WNW 15.0 mph 19.6 mph 0.03 in Rain Rain
12:55 AM 41.4 °F 35.2 °F 41.0 °F 99% 29.90 in 4.0 mi NW 10.4 mph - 0.11 in Rain Heavy Rain
1:15 AM 41.0 °F 34.3 °F 40.5 °F 98% 29.91 in 7.0 mi WNW 11.5 mph - 0.02 in Rain Rain
1:35 AM 40.8 °F 34.1 °F 40.1 °F 97% 29.90 in 5.0 mi NW 11.5 mph 19.6 mph 0.08 in Rain Rain
1:55 AM 40.3 °F 34.4 °F 39.4 °F 97% 29.91 in 4.0 mi NW 9.2 mph - 0.17 in Rain Heavy Rain
2:15 AM 40.3 °F 34.9 °F 39.7 °F 98% 29.92 in 7.0 mi NW 8.1 mph - 0.02 in Rain Light Rain
2:35 AM 40.3 °F - 39.7 °F 98% 29.91 in 7.0 mi Calm Calm - 0.06 in Rain Rain
2:55 AM 40.1 °F 33.6 °F 39.4 °F 97% 29.92 in 7.0 mi WNW 10.4 mph - 0.08 in Rain Light Rain
3:15 AM 39.7 °F 33.2 °F 38.7 °F 96% 29.92 in 10.0 mi NW 10.4 mph 19.6 mph N/A   Drizzle
3:35 AM 39.9 °F 33.9 °F 39.2 °F 97% 29.93 in 5.0 mi WNW 9.2 mph - 0.04 in Rain Heavy Rain
3:55 AM 39.2 °F 31.6 °F 37.9 °F 95% 29.93 in 4.0 mi WNW 12.7 mph 19.6 mph 0.09 in Rain Rain
4:15 AM 39.2 °F 30.8 °F 38.3 °F 97% 29.93 in 10.0 mi WNW 15.0 mph 26.5 mph 0.01 in Rain Light Rain
4:35 AM 38.7 °F 29.8 °F 36.5 °F 92% 29.94 in 10.0 mi WNW 16.1 mph 26.5 mph 0.01 in   Light Drizzle
4:55 AM 38.3 °F 30.5 °F 36.5 °F 93% 29.95 in 7.0 mi NW 12.7 mph 21.9 mph 0.01 in   Overcast
5:15 AM 37.8 °F 29.4 °F 36.7 °F 96% 29.95 in 5.0 mi NW 13.8 mph 19.6 mph N/A   Overcast
5:35 AM 37.4 °F 28.5 °F 34.7 °F 90% 29.95 in 10.0 mi NW 15.0 mph 21.9 mph N/A   Overcast
5:55 AM 37.4 °F 30.3 °F 35.1 °F 91% 29.96 in 10.0 mi WNW 10.4 mph - N/A   Overcast
6:15 AM 36.9 °F 28.2 °F 34.5 °F 91% 29.97 in 7.0 mi WNW 13.8 mph 20.7 mph N/A   Overcast
6:35 AM 36.5 °F 28.2 °F 34.0 °F 91% 29.99 in 7.0 mi West 12.7 mph 17.3 mph N/A   Overcast
6:55 AM 36.1 °F 26.9 °F 33.1 °F 89% 30.00 in 10.0 mi West 15.0 mph 24.2 mph N/A   Overcast
7:15 AM 36.0 °F 27.1 °F 32.7 °F 88% 30.01 in 10.0 mi WNW 13.8 mph 26.5 mph N/A   Overcast
7:35 AM 35.6 °F 26.6 °F 32.0 °F 87% 30.02 in 10.0 mi WNW 13.8 mph 23.0 mph N/A   Overcast
7:55 AM 35.6 °F 28.0 °F 31.5 °F 85% 30.02 in 10.0 mi WNW 10.4 mph 18.4 mph N/A   Overcast
8:15 AM 36.0 °F 28.5 °F 32.0 °F 86% 30.04 in 10.0 mi WNW 10.4 mph 17.3 mph N/A   Overcast
8:35 AM 36.0 °F 27.5 °F 31.6 °F 84% 30.05 in 10.0 mi West 12.7 mph 20.7 mph N/A   Overcast
8:55 AM 36.3 °F 28.0 °F 32.0 °F 84% 30.06 in 10.0 mi West 12.7 mph - N/A   Overcast
9:15 AM 36.5 °F 27.8 °F 32.0 °F 84% 30.07 in 10.0 mi WNW 13.8 mph 21.9 mph N/A   Overcast
9:35 AM 36.5 °F 29.2 °F 32.0 °F 84% 30.07 in 10.0 mi WNW 10.4 mph - N/A   Overcast
9:55 AM 36.5 °F 27.4 °F 31.1 °F 81% 30.08 in 10.0 mi WNW 15.0 mph 23.0 mph N/A   Overcast
10:15 AM 36.7 °F 26.6 °F 30.2 °F 77% 30.10 in 10.0 mi WNW 18.4 mph 31.1 mph N/A   Overcast
10:35 AM 37.4 °F 29.8 °F 30.9 °F 77% 30.10 in 10.0 mi West 11.5 mph 19.6 mph N/A   Overcast
10:55 AM 36.7 °F 27.6 °F 30.7 °F 79% 30.11 in 10.0 mi WNW 15.0 mph 21.9 mph N/A   Overcast
11:15 AM 36.9 °F 25.4 °F 28.9 °F 73% 30.13 in 10.0 mi WNW 24.2 mph 28.8 mph N/A   Overcast
11:35 AM 36.9 °F 27.8 °F 29.1 °F 74% 30.14 in 10.0 mi WNW 15.0 mph 25.3 mph N/A   Overcast
11:55 AM 36.5 °F 27.0 °F 29.8 °F 77% 30.15 in 10.0 mi West 16.1 mph 26.5 mph N/A   Overcast
12:15 PM 35.8 °F 26.1 °F 28.9 °F 76% 30.15 in 10.0 mi West 16.1 mph 24.2 mph N/A   Overcast
12:35 PM 36.0 °F 26.7 °F 28.4 °F 74% 30.16 in 10.0 mi WNW 15.0 mph 26.5 mph N/A   Overcast
12:55 PM 36.0 °F 25.3 °F 27.3 °F 71% 30.17 in 10.0 mi WNW 19.6 mph 24.2 mph N/A   Overcast
1:35 PM 36.0 °F 25.6 °F 28.8 °F 75% 30.19 in 10.0 mi West 18.4 mph - N/A   Overcast
1:55 PM 36.0 °F 26.0 °F 27.5 °F 71% 30.20 in 10.0 mi West 17.3 mph 25.3 mph N/A   Overcast
2:15 PM 37.4 °F 29.8 °F 28.8 °F 71% 30.20 in 10.0 mi WNW 11.5 mph 17.3 mph N/A   Overcast
2:35 PM 36.9 °F 27.5 °F 27.7 °F 69% 30.21 in 10.0 mi West 16.1 mph 21.9 mph N/A   Overcast
2:55 PM 37.0 °F 27.7 °F 27.5 °F 68% 30.22 in 10.0 mi West 16.1 mph 21.9 mph N/A   Overcast
3:15 PM 37.4 °F 29.3 °F 27.5 °F 67% 30.23 in 10.0 mi WNW 12.7 mph 24.2 mph N/A   Overcast
3:35 PM 37.2 °F 28.7 °F 26.2 °F 65% 30.23 in 10.0 mi WNW 13.8 mph - N/A   Overcast
3:55 PM 38.7 °F 32.9 °F 28.4 °F 67% 30.23 in 10.0 mi West 8.1 mph - N/A   Overcast
4:15 PM 38.8 °F 33.2 °F 27.5 °F 64% 30.24 in 10.0 mi West 8.1 mph 17.3 mph N/A   Mostly Cloudy
4:35 PM 38.5 °F 30.7 °F 27.1 °F 64% 30.24 in 10.0 mi WNW 12.7 mph 16.1 mph N/A   Scattered Clouds
4:55 PM 38.5 °F 31.6 °F 26.4 °F 62% 30.25 in 10.0 mi WNW 10.4 mph 19.6 mph N/A   Mostly Cloudy
5:15 PM 38.1 °F 31.7 °F 26.2 °F 62% 30.25 in 10.0 mi WNW 9.2 mph - N/A   Scattered Clouds
5:35 PM 37.4 °F 32.1 °F 26.1 °F 64% 30.26 in 10.0 mi WNW 6.9 mph - N/A   Clear
5:55 PM 36.5 °F - 26.6 °F 67% 30.25 in 10.0 mi Calm Calm - N/A   Clear
6:15 PM 35.1 °F - 27.7 °F 74% 30.26 in 10.0 mi Calm Calm - N/A   Clear
6:35 PM 33.1 °F - 29.3 °F 86% 30.27 in 10.0 mi Calm Calm - N/A   Clear
6:55 PM 32.4 °F - 28.9 °F 87% 30.28 in 10.0 mi Calm Calm - N/A   Clear
7:15 PM 31.8 °F - 29.5 °F 91% 30.29 in 10.0 mi Calm Calm - N/A   Clear
7:35 PM 31.1 °F - 29.5 °F 94% 30.30 in 10.0 mi Calm Calm - N/A   Clear
7:55 PM 31.1 °F - 29.8 °F 95% 30.31 in 10.0 mi Calm Calm - N/A   Clear
8:15 PM 30.9 °F - 29.3 °F 94% 30.32 in 10.0 mi Calm Calm - N/A   Clear
8:55 PM 30.6 °F - 29.7 °F 96% 30.32 in 10.0 mi Calm Calm - N/A   Clear
9:15 PM 30.0 °F - 29.5 °F 98% 30.33 in 10.0 mi Calm Calm - N/A   Clear
9:35 PM 29.7 °F - 29.3 °F 99% 30.33 in 10.0 mi Calm Calm - N/A   Clear
9:55 PM 29.3 °F - 28.9 °F 99% 30.33 in 7.0 mi Calm Calm - N/A   Clear
10:15 PM 29.7 °F - 29.3 °F 99% 30.33 in 10.0 mi Calm Calm - N/A   Clear
10:35 PM 29.3 °F - 29.1 °F 99% 30.34 in 10.0 mi Calm Calm - N/A   Clear
10:55 PM 29.3 °F - 29.1 °F 99% 30.33 in 10.0 mi Calm Calm - N/A   Clear
11:15 PM 28.6 °F - 28.2 °F 99% 30.33 in 10.0 mi Calm Calm - N/A   Clear
11:35 PM 29.1 °F - 28.8 °F 99% 30.33 in 10.0 mi Calm Calm - N/A   Clear
11:55 PM 28.8 °F - 28.4 °F 99% 30.34 in 10.0 mi Calm Calm - N/A   Clear